Location: Ch?enovice
(49.7164°N, 15.2160°E)
Time: 17:45:35
(UTC+00:00)

Cosmos 2219 Rocket - Pass Details

Date: 23 May 2024
Orbit: 827 x 846 km, 71.0° (Epoch: 13 June)

Event Time Altitude Azimuth Distance (km) Brightness Sun altitude
Rises 01:48:51 0° 330° (NNW) 3,399 5.6 -9.9°
Reaches altitude 10° 01:51:18 10° 331° (NNW) 2,464 4.9 -9.6°
Maximum altitude 01:56:58 89° 247° (WSW) 849 2.2 -9.0°
Drops below altitude 10° 02:02:38 10° 154° (SSE) 2,460 4.4 -8.4°
Sets 02:05:04 0° 154° (SSE) 3,393 5.1 -8.1°
